,,,PA_Meas_PMT16A,,PR_Meas_QMR101_102,,RH_Meas_QMH101,,SR_Meas_QMS101,,TA_Meas_QMH101,,GenWind,,GenWind,
date,time,status,PA,status,PR,status,RH,status,SR,status,TA,status,DirAvg,status,SpdAvg,
2009-07-05, 00:00:05,VALID,1009.62,VALID,0,VALID,93.0189,VALID,0,VALID,23.9455,VALID,155,VALID,1.17148,
2009-07-05, 00:01:05,VALID,1009.59,VALID,0,VALID,93.0113,VALID,0,VALID,23.9473,VALID,144,VALID,1.29844,
2009-07-05, 00:02:05,VALID,1009.55,VALID,0,VALID,92.9961,VALID,0,VALID,23.926,VALID,155,VALID,1.07891,
2009-07-05, 00:03:05,VALID,1009.55,VALID,0,VALID,93.0113,VALID,0.105969,VALID,23.9047,VALID,160,VALID,1.03359,
2009-07-05, 00:04:05,VALID,1009.55,VALID,0,VALID,93.0037,VALID,0,VALID,23.9242,VALID,144,VALID,1.07422,
2009-07-05, 00:05:05,VALID,1009.52,VALID,0,VALID,93.0266,VALID,0,VALID,23.926,VALID,161,VALID,1.25859,
2009-07-05, 00:06:05,VALID,1009.49,VALID,0,VALID,93.0266,VALID,0,VALID,23.926,VALID,174,VALID,1.18633,
2009-07-05, 00:07:05,VALID,1009.47,VALID,0,VALID,93.0189,VALID,0,VALID,23.9065,VALID,163,VALID,1.5668,
2009-07-05, 00:08:05,VALID,1009.47,VALID,0,VALID,93.0037,VALID,0,VALID,23.9065,VALID,145,VALID,1.12539,
2009-07-05, 00:09:05,VALID,1009.45,VALID,0,VALID,93.0266,VALID,0,VALID,23.926,VALID,166,VALID,0.946875,
2009-07-05, 00:10:05,VALID,1009.46,VALID,0,VALID,93.0342,VALID,0,VALID,23.8871,VALID,162,VALID,1.11055,
2009-07-05, 00:11:05,VALID,1009.46,VALID,0,VALID,93.0342,VALID,0.105969,VALID,23.926,VALID,157,VALID,0.978125,
2009-07-05, 00:12:05,VALID,1009.48,VALID,0,VALID,93.0342,VALID,0.105969,VALID,23.9065,VALID,169,VALID,1.08047,
2009-07-05, 00:13:05,VALID,1009.48,VALID,0,VALID,93.0342,VALID,0.105969,VALID,23.8871,VALID,164,VALID,0.951172,
2009-07-05, 00:14:05,VALID,1009.47,VALID,0,VALID,93.0494,VALID,0,VALID,23.8871,VALID,141,VALID,1.61992,
2009-07-05, 00:15:05,VALID,1009.48,VALID,0,VALID,93.0342,VALID,0,VALID,23.9065,VALID,120,VALID,1.00664,
2009-07-05, 00:16:05,VALID,1009.47,VALID,0,VALID,93.0418,VALID,0,VALID,23.8871,VALID,127,VALID,1.25859,
2009-07-05, 00:17:05,VALID,1009.49,VALID,0,VALID,93.0418,VALID,0,VALID,23.8871,VALID,140,VALID,0.910156,
2009-07-05, 00:18:05,VALID,1009.5,VALID,0,VALID,93.0494,VALID,0,VALID,23.8871,VALID,123,VALID,0.925781,
2009-07-05, 00:19:05,VALID,1009.5,VALID,0,VALID,93.0494,VALID,0,VALID,23.8871,VALID,162,VALID,1.01563,
2009-07-05, 00:20:05,VALID,1009.53,VALID,0,VALID,93.0418,VALID,0.105969,VALID,23.8871,VALID,158,VALID,0.548828,
2009-07-05, 00:21:05,VALID,1009.56,VALID,0,VALID,93.0723,VALID,0,VALID,23.8871,VALID,125,VALID,0.686719,
2009-07-05, 00:22:05,VALID,1009.56,VALID,0,VALID,93.0494,VALID,0,VALID,23.8658,VALID,117,VALID,0.706641,
2009-07-05, 00:23:05,VALID,1009.56,VALID,0,VALID,93.0647,VALID,0.105969,VALID,23.9065,VALID,109,VALID,0.958203,
2009-07-05, 00:24:05,VALID,1009.59,VALID,0,VALID,93.0647,VALID,0,VALID,23.8871,VALID,113,VALID,1.10703,
2009-07-05, 00:25:05,VALID,1009.6,VALID,0,VALID,93.0647,VALID,0,VALID,23.8871,VALID,114,VALID,1.45,
2009-07-05, 00:26:05,VALID,1009.62,VALID,0,VALID,93.0647,VALID,0,VALID,23.8676,VALID,119,VALID,1.49336,
2009-07-05, 00:27:05,VALID,1009.62,VALID,0,VALID,93.0723,VALID,0,VALID,23.8871,VALID,128,VALID,1.42227,
2009-07-05, 00:28:05,VALID,1009.61,VALID,0,VALID,93.0799,VALID,0,VALID,23.8676,VALID,149,VALID,1.08086,
2009-07-05, 00:29:05,VALID,1009.58,VALID,0,VALID,93.0799,VALID,0,VALID,23.8676,VALID,129,VALID,1.16797,
2009-07-05, 00:30:05,VALID,1009.56,VALID,0,VALID,93.0876,VALID,0,VALID,23.8676,VALID,111,VALID,0.912891,
2009-07-05, 00:31:05,VALID,1009.57,VALID,0,VALID,93.0723,VALID,0.105969,VALID,23.8676,VALID,81,VALID,0.876562,
2009-07-05, 00:32:05,VALID,1009.58,VALID,0,VALID,93.0876,VALID,0,VALID,23.8481,VALID,93,VALID,0.695313,
2009-07-05, 00:33:05,VALID,1009.59,VALID,0,VALID,93.0952,VALID,0,VALID,23.8676,VALID,125,VALID,0.694531,
2009-07-05, 00:34:05,VALID,1009.6,VALID,0,VALID,93.0876,VALID,0,VALID,23.8463,VALID,136,VALID,0.925781,
2009-07-05, 00:35:05,VALID,1009.6,VALID,0,VALID,93.1028,VALID,0,VALID,23.8286,VALID,131,VALID,1.41094,
2009-07-05, 00:36:05,VALID,1009.57,VALID,0,VALID,93.1181,VALID,0.105969,VALID,23.8268,VALID,106,VALID,0.61875,
2009-07-05, 00:37:05,VALID,1009.53,VALID,0,VALID,93.1105,VALID,0.105969,VALID,23.8268,VALID,126,VALID,1.15859,
2009-07-05, 00:38:05,VALID,1009.5,VALID,0,VALID,93.1028,VALID,0,VALID,23.8073,VALID,163,VALID,0.865234,
2009-07-05, 00:39:05,VALID,1009.51,VALID,0,VALID,93.1028,VALID,0.105969,VALID,23.8286,VALID,142,VALID,1.09258,
2009-07-05, 00:40:05,VALID,1009.49,VALID,0,VALID,93.1105,VALID,0.105969,VALID,23.8091,VALID,134,VALID,1.01641,
2009-07-05, 00:41:05,VALID,1009.46,VALID,0,VALID,93.1028,VALID,0,VALID,23.8109,VALID,125,VALID,1.11523,
2009-07-05, 00:42:05,VALID,1009.5,VALID,0,VALID,93.1333,VALID,0,VALID,23.8091,VALID,131,VALID,1.06172,
2009-07-05, 00:43:05,VALID,1009.45,VALID,0,VALID,93.1181,VALID,0,VALID,23.8091,VALID,183,VALID,0.710156,
2009-07-05, 00:44:05,VALID,1009.48,VALID,0,VALID,93.1181,VALID,0,VALID,23.8091,VALID,158,VALID,1.2082,
2009-07-05, 00:45:05,VALID,1009.48,VALID,0,VALID,93.1257,VALID,0,VALID,23.7914,VALID,162,VALID,1.0957,
2009-07-05, 00:46:05,VALID,1009.43,VALID,0,VALID,93.1257,VALID,0,VALID,23.7914,VALID,148,VALID,1.31602,
2009-07-05, 00:47:05,VALID,1009.4,VALID,0,VALID,93.1333,VALID,0,VALID,23.8109,VALID,144,VALID,1.09961,
2009-07-05, 00:48:05,VALID,1009.38,VALID,0,VALID,93.0342,VALID,0,VALID,23.7914,VALID,145,VALID,0.917969,
2009-07-05, 00:49:05,VALID,1009.32,VALID,0,VALID,93.0342,VALID,0,VALID,23.8127,VALID,122,VALID,0.923047,
2009-07-05, 00:50:05,VALID,1009.3,VALID,0,VALID,93.0494,VALID,0,VALID,23.8109,VALID,120,VALID,0.894141,
2009-07-05, 00:51:05,VALID,1009.33,VALID,0,VALID,93.0494,VALID,0,VALID,23.7914,VALID,119,VALID,0.855078,
2009-07-05, 00:52:05,VALID,1009.32,VALID,0,VALID,93.0342,VALID,0,VALID,23.8109,VALID,121,VALID,1.01641,
2009-07-05, 00:53:05,VALID,1009.31,VALID,0,VALID,93.0418,VALID,0,VALID,23.8109,VALID,122,VALID,1.08711,
2009-07-05, 00:54:05,VALID,1009.28,VALID,0,VALID,93.0571,VALID,0,VALID,23.7914,VALID,132,VALID,1.49297,
2009-07-05, 00:55:05,VALID,1009.27,VALID,0,VALID,93.0647,VALID,0,VALID,23.7914,VALID,135,VALID,1.14883,
2009-07-05, 00:56:05,VALID,1009.28,VALID,0,VALID,93.0494,VALID,0,VALID,23.7932,VALID,128,VALID,1.38047,
2009-07-05, 00:57:05,VALID,1009.24,VALID,0,VALID,93.0647,VALID,0,VALID,23.772,VALID,130,VALID,1.00898,
2009-07-05, 00:58:05,VALID,1009.23,VALID,0,VALID,93.0494,VALID,0,VALID,23.772,VALID,124,VALID,0.916406,
2009-07-05, 00:59:05,VALID,1009.21,VALID,0,VALID,93.0571,VALID,0,VALID,23.8109,VALID,139,VALID,0.627734,
2009-07-05, 01:00:05,VALID,1009.2,VALID,0,VALID,93.0647,VALID,0,VALID,23.7896,VALID,138,VALID,0.557813,
2009-07-05, 01:01:05,VALID,1009.22,VALID,0,VALID,93.0647,VALID,0,VALID,23.7896,VALID,133,VALID,0.569141,
2009-07-05, 01:02:05,VALID,1009.21,VALID,0,VALID,93.0571,VALID,0,VALID,23.7507,VALID,128,VALID,1.28867,
2009-07-05, 01:03:05,VALID,1009.25,VALID,0,VALID,93.0418,VALID,0,VALID,23.7701,VALID,121,VALID,1.4168,
2009-07-05, 01:04:05,VALID,1009.26,VALID,0,VALID,93.0723,VALID,0,VALID,23.772,VALID,136,VALID,1.38047,
2009-07-05, 01:05:05,VALID,1009.29,VALID,0,VALID,93.0723,VALID,0.105969,VALID,23.7701,VALID,117,VALID,1.53125,
2009-07-05, 01:06:05,VALID,1009.29,VALID,0,VALID,93.0647,VALID,0.105969,VALID,23.7507,VALID,127,VALID,1.13281,
2009-07-05, 01:07:05,VALID,1009.28,VALID,0,VALID,93.0571,VALID,0,VALID,23.7312,VALID,122,VALID,1.29844,
2009-07-05, 01:08:05,VALID,1009.24,VALID,0,VALID,93.0723,VALID,0,VALID,23.7312,VALID,126,VALID,1.84609,
2009-07-05, 01:09:05,VALID,1009.25,VALID,0,VALID,93.0571,VALID,0.105969,VALID,23.7312,VALID,122,VALID,1.09687,
2009-07-05, 01:10:05,VALID,1009.24,VALID,0,VALID,93.0799,VALID,0,VALID,23.7312,VALID,127,VALID,1.07852,
2009-07-05, 01:11:05,VALID,1009.2,VALID,0,VALID,93.0647,VALID,0,VALID,23.7117,VALID,130,VALID,1.01719,
2009-07-05, 01:12:05,VALID,1009.18,VALID,0,VALID,93.0723,VALID,0.105969,VALID,23.7117,VALID,124,VALID,0.801953,
2009-07-05, 01:13:05,VALID,1009.11,VALID,0,VALID,93.0571,VALID,0.105969,VALID,23.7117,VALID,127,VALID,1.71172,
2009-07-05, 01:14:05,VALID,1009.12,VALID,0,VALID,93.0876,VALID,0.105969,VALID,23.7117,VALID,108,VALID,1.1043,
2009-07-05, 01:15:05,VALID,1009.11,VALID,0,VALID,93.0799,VALID,0,VALID,23.6922,VALID,144,VALID,1.1793,
2009-07-05, 01:16:05,VALID,1009.1,VALID,0,VALID,93.0723,VALID,0.105969,VALID,23.6922,VALID,129,VALID,1.12461,
2009-07-05, 01:17:05,VALID,1009.13,VALID,0,VALID,93.0571,VALID,0,VALID,23.6922,VALID,117,VALID,0.980859,
2009-07-05, 01:18:05,VALID,1009.08,VALID,0,VALID,93.0571,VALID,0.105969,VALID,23.6922,VALID,138,VALID,1.25781,
2009-07-05, 01:19:05,VALID,1009.07,VALID,0,VALID,93.0571,VALID,0.105969,VALID,23.6727,VALID,115,VALID,1.05078,
2009-07-05, 01:20:05,VALID,1009.08,VALID,0,VALID,93.0647,VALID,0.105969,VALID,23.6727,VALID,120,VALID,1.09687,
2009-07-05, 01:21:05,VALID,1009.07,VALID,0,VALID,93.0723,VALID,0,VALID,23.6727,VALID,131,VALID,0.926172,
2009-07-05, 01:22:05,VALID,1009.1,VALID,0,VALID,93.0723,VALID,0.105969,VALID,23.6532,VALID,149,VALID,0.948828,
2009-07-05, 01:23:05,VALID,1009.12,VALID,0,VALID,93.0723,VALID,0.105969,VALID,23.6532,VALID,132,VALID,1.11484,
2009-07-05, 01:24:05,VALID,1009.1,VALID,0,VALID,93.0571,VALID,0.105969,VALID,23.6338,VALID,130,VALID,1.02422,
2009-07-05, 01:25:05,VALID,1009.1,VALID,0,VALID,93.0571,VALID,0.105969,VALID,23.6532,VALID,116,VALID,1.12891,
2009-07-05, 01:26:05,VALID,1009.08,VALID,0,VALID,93.0723,VALID,0.105969,VALID,23.6532,VALID,125,VALID,1.19844,
2009-07-05, 01:27:05,VALID,1009.13,VALID,0,VALID,93.0647,VALID,0.105969,VALID,23.593,VALID,120,VALID,1.26406,
2009-07-05, 01:28:05,VALID,1009.1,VALID,0,VALID,93.0494,VALID,0.105969,VALID,23.6143,VALID,102,VALID,0.991016,
2009-07-05, 01:29:05,VALID,1009.1,VALID,0,VALID,93.0647,VALID,0.105969,VALID,23.6143,VALID,105,VALID,1.71953,
2009-07-05, 01:30:05,VALID,1009.14,VALID,0,VALID,93.0876,VALID,0.105969,VALID,23.6143,VALID,122,VALID,1.58281,
2009-07-05, 01:31:05,VALID,1009.16,VALID,0,VALID,93.0571,VALID,0,VALID,23.6143,VALID,105,VALID,1.01133,
2009-07-05, 01:32:05,VALID,1009.16,VALID,0,VALID,93.0418,VALID,0,VALID,23.5948,VALID,107,VALID,1.05742,
2009-07-05, 01:33:05,VALID,1009.15,VALID,0,VALID,93.0342,VALID,0,VALID,23.5948,VALID,109,VALID,1.01289,
2009-07-05, 01:34:05,VALID,1009.13,VALID,0,VALID,93.0342,VALID,0,VALID,23.5948,VALID,99,VALID,1.53437,
2009-07-05, 01:35:05,VALID,1009.18,VALID,0,VALID,93.0342,VALID,0,VALID,23.5753,VALID,102,VALID,1.25547,
2009-07-05, 01:36:05,VALID,1009.16,VALID,0,VALID,93.0647,VALID,0,VALID,23.6161,VALID,97,VALID,1.53555,
2009-07-05, 01:37:05,VALID,1009.12,VALID,0,VALID,93.0189,VALID,0.105969,VALID,23.5753,VALID,99,VALID,1.51289,
2009-07-05, 01:38:05,VALID,1009.14,VALID,0,VALID,93.0189,VALID,0,VALID,23.5558,VALID,95,VALID,1.57852,
2009-07-05, 01:39:05,VALID,1009.1,VALID,0,VALID,92.9884,VALID,0.105969,VALID,23.5558,VALID,111,VALID,1.59297,
2009-07-05, 01:40:05,VALID,1009.08,VALID,0,VALID,92.9884,VALID,0.105969,VALID,23.5558,VALID,108,VALID,1.49102,
2009-07-05, 01:41:05,VALID,1009.06,VALID,0,VALID,92.9579,VALID,0,VALID,23.5558,VALID,104,VALID,1.71523,
2009-07-05, 01:42:05,VALID,1009.04,VALID,0,VALID,92.9427,VALID,0.105969,VALID,23.5363,VALID,108,VALID,1.17695,
2009-07-05, 01:43:05,VALID,1009,VALID,0,VALID,92.9427,VALID,0.105969,VALID,23.5346,VALID,90,VALID,1.09297,
2009-07-05, 01:44:05,VALID,1008.96,VALID,0,VALID,92.9198,VALID,0,VALID,23.5363,VALID,90,VALID,1.26758,
2009-07-05, 01:45:05,VALID,1008.94,VALID,0,VALID,92.9274,VALID,0,VALID,23.4974,VALID,94,VALID,0.689453,
2009-07-05, 01:46:05,VALID,1008.93,VALID,0,VALID,92.9198,VALID,0,VALID,23.5169,VALID,90,VALID,0.950781,
2009-07-05, 01:47:05,VALID,1008.94,VALID,0,VALID,92.9198,VALID,0.105969,VALID,23.4992,VALID,82,VALID,1.61289,
2009-07-05, 01:48:05,VALID,1008.93,VALID,0,VALID,92.9122,VALID,0.105969,VALID,23.4584,VALID,94,VALID,1.20117,
2009-07-05, 01:49:05,VALID,1008.95,VALID,0,VALID,92.9046,VALID,0.105969,VALID,23.4584,VALID,88,VALID,0.960547,
2009-07-05, 01:50:05,VALID,1008.94,VALID,0,VALID,92.8893,VALID,0.105969,VALID,23.4389,VALID,74,VALID,0.989062,
2009-07-05, 01:51:05,VALID,1008.95,VALID,0,VALID,92.8969,VALID,0.105969,VALID,23.4389,VALID,100,VALID,0.850781,
2009-07-05, 01:52:05,VALID,1008.93,VALID,0,VALID,92.8741,VALID,0.105969,VALID,23.4,VALID,102,VALID,1.14766,
2009-07-05, 01:53:05,VALID,1008.92,VALID,0,VALID,92.8817,VALID,0.105969,VALID,23.4,VALID,110,VALID,1.22656,
2009-07-05, 01:54:05,VALID,1008.92,VALID,0,VALID,92.8664,VALID,0.105969,VALID,23.4,VALID,97,VALID,1.51133,
2009-07-05, 01:55:05,VALID,1008.91,VALID,0,VALID,92.8436,VALID,0.105969,VALID,23.4,VALID,101,VALID,1.42031,
2009-07-05, 01:56:05,VALID,1008.9,VALID,0,VALID,92.8512,VALID,0.105969,VALID,23.4194,VALID,108,VALID,0.930469,
2009-07-05, 01:57:05,VALID,1008.91,VALID,0,VALID,92.8359,VALID,0.105969,VALID,23.3982,VALID,84,VALID,1.04023,
2009-07-05, 01:58:05,VALID,1008.85,VALID,0,VALID,92.8359,VALID,0.105969,VALID,23.4,VALID,64,VALID,0.724219,
2009-07-05, 01:59:05,VALID,1008.85,VALID,0,VALID,92.8207,VALID,0.105969,VALID,23.4,VALID,81,VALID,0.963281,
2009-07-05, 02:00:05,VALID,1008.81,VALID,0,VALID,92.8283,VALID,0,VALID,23.4017,VALID,88,VALID,1.0168,
2009-07-05, 02:01:05,VALID,1008.8,VALID,0,VALID,92.8283,VALID,0,VALID,23.3823,VALID,86,VALID,0.820313,
2009-07-05, 02:02:05,VALID,1008.79,VALID,0,VALID,92.813,VALID,0,VALID,23.3823,VALID,89,VALID,1.08555,
2009-07-05, 02:03:05,VALID,1008.8,VALID,0,VALID,92.8359,VALID,0.105969,VALID,23.3823,VALID,83,VALID,0.547266,
2009-07-05, 02:04:05,VALID,1008.8,VALID,0,VALID,92.8359,VALID,0,VALID,23.3628,VALID,96,VALID,0.949219,
2009-07-05, 02:05:05,VALID,1008.77,VALID,0,VALID,92.8283,VALID,0,VALID,23.3628,VALID,97,VALID,0.839453,
2009-07-05, 02:06:05,VALID,1008.77,VALID,0,VALID,92.8283,VALID,0,VALID,23.3628,VALID,94,VALID,1.14453,
2009-07-05, 02:07:05,VALID,1008.77,VALID,0,VALID,92.8283,VALID,0,VALID,23.3823,VALID,66,VALID,0.646875,
2009-07-05, 02:08:05,VALID,1008.78,VALID,0,VALID,92.8359,VALID,0,VALID,23.3433,VALID,69,VALID,0.716406,
2009-07-05, 02:09:05,VALID,1008.77,VALID,0,VALID,92.8512,VALID,0,VALID,23.3433,VALID,69,VALID,0.132422,
2009-07-05, 02:10:05,VALID,1008.8,VALID,0,VALID,92.8512,VALID,0,VALID,23.3238,VALID,85,VALID,0.601953,
2009-07-05, 02:11:05,VALID,1008.8,VALID,0,VALID,92.8512,VALID,0,VALID,23.3238,VALID,68,VALID,0.798437,
2009-07-05, 02:12:05,VALID,1008.81,VALID,0,VALID,92.8664,VALID,0,VALID,23.3238,VALID,94,VALID,0.665234,
2009-07-05, 02:13:05,VALID,1008.81,VALID,0,VALID,92.8664,VALID,0,VALID,23.3256,VALID,91,VALID,1.18203,
2009-07-05, 02:14:05,VALID,1008.81,VALID,0,VALID,92.8512,VALID,0,VALID,23.3043,VALID,86,VALID,1.20469,
2009-07-05, 02:15:05,VALID,1008.78,VALID,0,VALID,92.8893,VALID,0.105969,VALID,23.3026,VALID,97,VALID,0.976953,
2009-07-05, 02:16:05,VALID,1008.75,VALID,0,VALID,92.8817,VALID,0.105969,VALID,23.3026,VALID,93,VALID,0.811719,
2009-07-05, 02:17:05,VALID,1008.71,VALID,0,VALID,92.8817,VALID,0.105969,VALID,23.322,VALID,71,VALID,0.776953,
2009-07-05, 02:18:05,VALID,1008.71,VALID,0,VALID,92.9046,VALID,0.105969,VALID,23.322,VALID,79,VALID,0.522266,
2009-07-05, 02:19:05,VALID,1008.72,VALID,0,VALID,92.9046,VALID,0,VALID,23.3026,VALID,80,VALID,0.699609,
2009-07-05, 02:20:04,VALID,1008.71,VALID,0,VALID,92.9198,VALID,0.105969,VALID,23.3026,VALID,103,VALID,0.737109,
2009-07-05, 02:21:04,VALID,1008.73,VALID,0,VALID,92.9351,VALID,0.105969,VALID,23.3026,VALID,96,VALID,0.902344,
2009-07-05, 02:22:04,VALID,1008.72,VALID,0,VALID,92.9274,VALID,0.105969,VALID,23.2831,VALID,97,VALID,0.939844,
2009-07-05, 02:23:04,VALID,1008.76,VALID,0,VALID,92.9198,VALID,0.105969,VALID,23.2618,VALID,83,VALID,0.899219,
2009-07-05, 02:24:04,VALID,1008.76,VALID,0,VALID,92.9351,VALID,0.105969,VALID,23.2831,VALID,96,VALID,0.663281,
2009-07-05, 02:25:04,VALID,1008.77,VALID,0,VALID,92.9198,VALID,0.105969,VALID,23.2831,VALID,99,VALID,0.958594,
2009-07-05, 02:26:04,VALID,1008.79,VALID,0,VALID,92.9656,VALID,0.105969,VALID,23.2831,VALID,88,VALID,0.382031,
2009-07-05, 02:27:04,VALID,1008.77,VALID,0,VALID,92.9732,VALID,0,VALID,23.3026,VALID,97,VALID,0.944531,
2009-07-05, 02:28:04,VALID,1008.82,VALID,0,VALID,92.9503,VALID,0.105969,VALID,23.3026,VALID,82,VALID,1.01055,
2009-07-05, 02:29:04,VALID,1008.87,VALID,0,VALID,92.9503,VALID,0.105969,VALID,23.2831,VALID,91,VALID,0.976172,
2009-07-05, 02:30:04,VALID,1008.88,VALID,0,VALID,92.9732,VALID,0,VALID,23.2848,VALID,72,VALID,1.11797,
2009-07-05, 02:31:04,VALID,1008.93,VALID,0,VALID,92.9579,VALID,0,VALID,23.3061,VALID,100,VALID,0.939453,
2009-07-05, 02:32:04,VALID,1008.92,VALID,0,VALID,92.9656,VALID,0,VALID,23.2848,VALID,100,VALID,1.47578,
2009-07-05, 02:33:04,VALID,1008.94,VALID,0,VALID,92.9732,VALID,0,VALID,23.2848,VALID,93,VALID,1.15977,
2009-07-05, 02:34:04,VALID,1008.95,VALID,0,VALID,92.9503,VALID,0,VALID,23.2848,VALID,91,VALID,1.13008,
2009-07-05, 02:35:04,VALID,1008.92,VALID,0,VALID,92.9808,VALID,0,VALID,23.2848,VALID,86,VALID,0.989844,
2009-07-05, 02:36:04,VALID,1008.94,VALID,0,VALID,92.9579,VALID,0,VALID,23.2848,VALID,89,VALID,0.971094,
2009-07-05, 02:37:04,VALID,1008.92,VALID,0,VALID,92.9808,VALID,0,VALID,23.2866,VALID,88,VALID,1.19297,
2009-07-05, 02:38:04,VALID,1008.91,VALID,0,VALID,92.9732,VALID,0,VALID,23.2441,VALID,91,VALID,1.42305,
2009-07-05, 02:39:04,VALID,1008.9,VALID,0,VALID,92.9732,VALID,0,VALID,23.2459,VALID,81,VALID,0.835938,
2009-07-05, 02:40:04,VALID,1008.87,VALID,0,VALID,92.9732,VALID,0,VALID,23.2654,VALID,96,VALID,1.25273,
2009-07-05, 02:41:04,VALID,1008.84,VALID,0,VALID,92.9808,VALID,0,VALID,23.2459,VALID,85,VALID,0.986719,
2009-07-05, 02:42:04,VALID,1008.84,VALID,0,VALID,92.9732,VALID,0,VALID,23.2264,VALID,65,VALID,0.737109,
2009-07-05, 02:43:04,VALID,1008.89,VALID,0,VALID,92.9884,VALID,0,VALID,23.2264,VALID,77,VALID,1.14766,
2009-07-05, 02:44:04,VALID,1008.88,VALID,0,VALID,92.9808,VALID,0,VALID,23.2264,VALID,80,VALID,1.16797,
2009-07-05, 02:45:04,VALID,1008.92,VALID,0,VALID,92.9884,VALID,0,VALID,23.2264,VALID,80,VALID,1.7168,
2009-07-05, 02:46:04,VALID,1008.93,VALID,0,VALID,93.0037,VALID,0,VALID,23.2264,VALID,97,VALID,1.65313,
2009-07-05, 02:47:04,VALID,1008.93,VALID,0,VALID,92.9884,VALID,0,VALID,23.2069,VALID,59,VALID,0.897266,
2009-07-05, 02:48:04,VALID,1008.94,VALID,0,VALID,92.9884,VALID,0,VALID,23.1857,VALID,79,VALID,1.3793,
2009-07-05, 02:49:04,VALID,1008.95,VALID,0,VALID,93.0113,VALID,0,VALID,23.2069,VALID,85,VALID,1.27617,
2009-07-05, 02:50:04,VALID,1008.94,VALID,0,VALID,92.9961,VALID,0,VALID,23.2069,VALID,42,VALID,0.332812,
2009-07-05, 02:51:04,VALID,1008.93,VALID,0,VALID,93.0189,VALID,0,VALID,23.1874,VALID,35,VALID,0.85625,
2009-07-05, 02:52:04,VALID,1008.9,VALID,0,VALID,93.0266,VALID,0,VALID,23.1874,VALID,58,VALID,1.31758,
2009-07-05, 02:53:04,VALID,1008.93,VALID,0,VALID,93.0342,VALID,0,VALID,23.1679,VALID,79,VALID,0.960547,
2009-07-05, 02:54:04,VALID,1008.9,VALID,0,VALID,93.0189,VALID,0,VALID,23.1662,VALID,106,VALID,1.3,
2009-07-05, 02:55:04,VALID,1008.89,VALID,0,VALID,93.0418,VALID,0,VALID,23.1679,VALID,78,VALID,1.54883,
2009-07-05, 02:56:04,VALID,1008.86,VALID,0,VALID,93.0342,VALID,0,VALID,23.1485,VALID,67,VALID,1.2918,
2009-07-05, 02:57:04,VALID,1008.84,VALID,0,VALID,93.0189,VALID,0,VALID,23.1485,VALID,77,VALID,1.08594,
2009-07-05, 02:58:04,VALID,1008.78,VALID,0,VALID,93.0342,VALID,0,VALID,23.1679,VALID,101,VALID,1.21797,
2009-07-05, 02:59:04,VALID,1008.76,VALID,0,VALID,93.0418,VALID,0,VALID,23.1467,VALID,91,VALID,1.16758,
2009-07-05, 03:00:04,VALID,1008.74,VALID,0,VALID,93.0571,VALID,0.105969,VALID,23.1662,VALID,92,VALID,1.6375,
2009-07-05, 03:01:04,VALID,1008.72,VALID,0,VALID,93.0799,VALID,0.105969,VALID,23.1467,VALID,57,VALID,1.27891,
2009-07-05, 03:02:04,VALID,1008.71,VALID,0,VALID,93.1028,VALID,0.105969,VALID,23.1662,VALID,63,VALID,0.745703,
2009-07-05, 03:03:04,VALID,1008.73,VALID,0,VALID,93.0723,VALID,0.105969,VALID,23.1467,VALID,89,VALID,1.06016,
2009-07-05, 03:04:04,VALID,1008.74,VALID,0,VALID,93.1028,VALID,0.105969,VALID,23.1467,VALID,64,VALID,0.8625,
2009-07-05, 03:05:04,VALID,1008.73,VALID,0,VALID,93.0952,VALID,0.105969,VALID,23.1467,VALID,96,VALID,0.978516,
2009-07-05, 03:06:04,VALID,1008.75,VALID,0,VALID,93.1028,VALID,0.105969,VALID,23.1272,VALID,84,VALID,1.23906,
2009-07-05, 03:07:04,VALID,1008.72,VALID,0,VALID,93.0952,VALID,0.105969,VALID,23.1467,VALID,87,VALID,0.703125,
2009-07-05, 03:08:04,VALID,1008.74,VALID,0,VALID,93.1105,VALID,0,VALID,23.1272,VALID,93,VALID,1.10508,
2009-07-05, 03:09:04,VALID,1008.75,VALID,0,VALID,93.1181,VALID,0.105969,VALID,23.106,VALID,75,VALID,0.851563,
2009-07-05, 03:10:04,VALID,1008.75,VALID,0,VALID,93.1181,VALID,0.105969,VALID,23.1272,VALID,74,VALID,1.21914,
2009-07-05, 03:11:04,VALID,1008.75,VALID,0,VALID,93.1333,VALID,0.105969,VALID,23.106,VALID,104,VALID,0.921094,
2009-07-05, 03:12:04,VALID,1008.74,VALID,0,VALID,93.1333,VALID,0.105969,VALID,23.1467,VALID,96,VALID,1.09219,
2009-07-05, 03:13:04,VALID,1008.73,VALID,0,VALID,93.1562,VALID,0.105969,VALID,23.1662,VALID,65,VALID,0.851953,
2009-07-05, 03:14:04,VALID,1008.74,VALID,0,VALID,93.1486,VALID,0.105969,VALID,23.145,VALID,94,VALID,1.19531,
2009-07-05, 03:15:04,VALID,1008.74,VALID,0,VALID,93.1486,VALID,0,VALID,23.1485,VALID,93,VALID,1.29141,
2009-07-05, 03:16:04,VALID,1008.73,VALID,0,VALID,93.1486,VALID,0,VALID,23.1485,VALID,88,VALID,1.30781,
2009-07-05, 03:17:04,VALID,1008.73,VALID,0,VALID,93.141,VALID,0,VALID,23.1485,VALID,117,VALID,1.66094,
2009-07-05, 03:18:04,VALID,1008.74,VALID,0,VALID,93.1486,VALID,0,VALID,23.1272,VALID,80,VALID,1.00352,
2009-07-05, 03:19:04,VALID,1008.71,VALID,0,VALID,93.1562,VALID,0,VALID,23.1485,VALID,85,VALID,1.60391,
2009-07-05, 03:20:04,VALID,1008.7,VALID,0,VALID,93.1257,VALID,0,VALID,23.1679,VALID,87,VALID,1.6918,
2009-07-05, 03:21:04,VALID,1008.68,VALID,0,VALID,93.141,VALID,0,VALID,23.1485,VALID,88,VALID,1.09727,
2009-07-05, 03:22:04,VALID,1008.69,VALID,0,VALID,93.1257,VALID,0,VALID,23.1485,VALID,69,VALID,1.12852,
2009-07-05, 03:23:04,VALID,1008.7,VALID,0,VALID,93.1333,VALID,0,VALID,23.1485,VALID,77,VALID,1.02227,
2009-07-05, 03:24:04,VALID,1008.69,VALID,0,VALID,93.141,VALID,0,VALID,23.1095,VALID,90,VALID,0.946094,
2009-07-05, 03:25:04,VALID,1008.7,VALID,0,VALID,93.1333,VALID,0,VALID,23.129,VALID,87,VALID,0.826563,
2009-07-05, 03:26:04,VALID,1008.72,VALID,0,VALID,93.1486,VALID,0,VALID,23.129,VALID,76,VALID,1.38086,
2009-07-05, 03:27:04,VALID,1008.73,VALID,0,VALID,93.1333,VALID,0,VALID,23.129,VALID,88,VALID,0.778125,
2009-07-05, 03:28:04,VALID,1008.73,VALID,0,VALID,93.141,VALID,0,VALID,23.129,VALID,80,VALID,1.03437,
2009-07-05, 03:29:04,VALID,1008.76,VALID,0,VALID,93.1638,VALID,0,VALID,23.129,VALID,89,VALID,0.791016,
2009-07-05, 03:30:04,VALID,1008.77,VALID,0,VALID,93.1715,VALID,0,VALID,23.1272,VALID,95,VALID,1.42578,
2009-07-05, 03:31:04,VALID,1008.81,VALID,0,VALID,93.141,VALID,0.105969,VALID,23.0865,VALID,95,VALID,1.22266,
2009-07-05, 03:32:04,VALID,1008.81,VALID,0,VALID,93.141,VALID,0.105969,VALID,23.1077,VALID,88,VALID,1.61836,
2009-07-05, 03:33:04,VALID,1008.81,VALID,0,VALID,93.1715,VALID,0.105969,VALID,23.0883,VALID,90,VALID,1.61484,
2009-07-05, 03:34:04,VALID,1008.82,VALID,0,VALID,93.1562,VALID,0.105969,VALID,23.0883,VALID,71,VALID,0.596484,
2009-07-05, 03:35:04,VALID,1008.81,VALID,0,VALID,93.1638,VALID,0.105969,VALID,23.1077,VALID,102,VALID,0.921484,
2009-07-05, 03:36:04,VALID,1008.79,VALID,0,VALID,93.1638,VALID,0.105969,VALID,23.1272,VALID,74,VALID,0.816406,
2009-07-05, 03:37:04,VALID,1008.78,VALID,0,VALID,93.1791,VALID,0.105969,VALID,23.0865,VALID,85,VALID,0.890625,
2009-07-05, 03:38:04,VALID,1008.81,VALID,0,VALID,93.1867,VALID,0.105969,VALID,23.0865,VALID,101,VALID,1.27695,
2009-07-05, 03:39:04,VALID,1008.81,VALID,0,VALID,93.1943,VALID,0.105969,VALID,23.0883,VALID,111,VALID,0.941016,
2009-07-05, 03:40:04,VALID,1008.81,VALID,0,VALID,93.1867,VALID,0.105969,VALID,23.1077,VALID,102,VALID,1.14922,
2009-07-05, 03:41:04,VALID,1008.84,VALID,0,VALID,93.1867,VALID,0.105969,VALID,23.1077,VALID,89,VALID,1.54805,